Regional Weather Roundup
Issued by NWS Charleston, WV

Home | Current Version | Previous Version | Graphics & Text | Print | Product List | Glossary On
Versions: 1 2 3 4 5 6 7 8 9 10 11 12 13 14 15 16 17 18 19 20 21 22 23 24 25 26 27 28
000
ASUS41 KRLX 271910
RWRRLX
West Virginia Regional Weather Roundup
National Weather Service Charleston WV
300 PM EDT WED APR 27 2016

Note: "fair" indicates few or no clouds below 12,000 feet with no
significant weather and/or obstructions to visibility.

WVZ003-272000-
Northern Panhandle of West Virginia

CITY           SKY/WX    TMP DP  RH WIND       PRES   REMARKS
WHEELING       CLOUDY    56  45  66 NW3       29.89S
$$

WVZ009-272000-
Northwest West Virginia

CITY           SKY/WX    TMP DP  RH WIND       PRES   REMARKS
PARKERSBURG    CLOUDY    62  53  72 CALM      29.89F
$$

WVZ006-272000-
Western West Virginia

CITY           SKY/WX    TMP DP  RH WIND       PRES   REMARKS
HUNTINGTON       N/A     74  63  68 VRB3      29.81F
$$

WVZ015-272000-
West Central West Virginia

CITY           SKY/WX    TMP DP  RH WIND       PRES   REMARKS
CHARLESTON     PTSUNNY   74  62  66 VRB5      29.83F
$$

WVZ022-031-272000-
North Central West Virginia

CITY           SKY/WX    TMP DP  RH WIND       PRES   REMARKS
CLARKSBURG     CLOUDY    60  56  86 NE5       29.87S
MORGANTOWN     CLOUDY    63  50  62 CALM      29.89S
$$

WVZ025-035-042-045-272000-
Southern West Virginia

CITY           SKY/WX    TMP DP  RH WIND       PRES   REMARKS
BECKLEY        PTSUNNY   71  57  61 W10       29.88S
LOGAN          NOT AVBL
BLUEFIELD      CLOUDY    67  59  75 W8        29.91S
LEWISBURG      PTSUNNY   71  57  61 SW8       29.87F
$$

WVZ047-272000-
Northern Mountains of West Virginia

CITY           SKY/WX    TMP DP  RH WIND       PRES   REMARKS
ELKINS         CLOUDY    66  54  65 CALM      29.88S
$$

WVZ052-272000-
Eastern Panhandle of West Virginia

CITY           SKY/WX    TMP DP  RH WIND       PRES   REMARKS
MARTINSBURG    CLOUDY    53  48  83 NE7       29.90R
PETERSBURG     CLOUDY    65  58  76 N9        29.85S
$$




USA.gov is the U.S. government's official web portal to all federal, state and local government web resources and services.